This demonstration page uses our WeatherBlox Daily Observations layout. Learn more.

Left ArrowRight Arrow

39.01783, -85.05884

Hourly Observations for May 8, 2021

Temp ( °F °C ) Dew Point ( °F °C ) Humidity (%) Winds ( mph kmh ) Pressure ( in mb ) Visibility ( mi km ) Precip ( " mm )
12:52 am 00:52 Mostly Clear 47 8.3 39 3.9 74 74 N 9 15 30.00 1016 10 16 N/A
1:52 am 01:52 Clear 45 7.2 37 2.8 74 74 NNW 8 13 30.01 1016 10 16 N/A
2:52 am 02:52 Clear 42 5.6 34 1.1 73 73 NW 8 13 30.02 1017 10 16 N/A
3:52 am 03:52 Clear 41 5 33 0.6 73 73 NW 7 11 30.02 1017 10 16 N/A
4:52 am 04:52 Clear 38 3.3 32 undefined 79 79 NW 7 11 30.04 1017 10 16 N/A
5:52 am 05:52 Clear 38 3.3 32 undefined 79 79 NNW 8 13 30.07 1018 10 16 N/A
6:52 am 06:52 Sunny 37 2.8 32 undefined 82 82 WNW 5 7 30.09 1019 10 16 N/A
7:52 am 07:52 Sunny 41 5 34 1.1 76 76 NNW 6 9 30.10 1019 10 16 N/A
8:52 am 08:52 Mostly Sunny 44 6.7 34 1.1 68 68 NNW 8 13 30.12 1020 10 16 N/A
9:52 am 09:52 Mostly Sunny 47 8.3 35 1.7 63 63 NNW 6 9 30.14 1021 10 16 N/A
10:52 am 10:52 Mostly Sunny 50 10 34 1.1 54 54 NW 9 15 30.14 1021 10 16 N/A
11:52 am 11:52 Partly Cloudy 52 11.1 33 0.6 49 49 NNW 9 15 30.14 1021 10 16 N/A
12:52 pm 12:52 Mostly Sunny 53 11.7 32 undefined 45 45 NW 7 11 30.13 1020 10 16 N/A
1:52 pm 13:52 Partly Cloudy 55 12.8 33 0.6 44 44 NW 8 13 30.12 1020 10 16 N/A
2:52 pm 14:52 Partly Cloudy 55 12.8 31 -0.6 40 40 VRB 3 6 30.11 1020 10 16 N/A
3:52 pm 15:52 Mostly Cloudy 59 15 33 0.6 38 38 N N/A 30.09 1019 10 16 N/A
4:52 pm 16:52 Mostly Cloudy 60 15.6 33 0.6 36 36 W 9 15 30.08 1019 10 16 N/A
5:52 pm 17:52 Mostly Cloudy 58 14.4 34 1.1 41 41 VRB 3 6 30.06 1018 10 16 N/A
6:52 pm 18:52 Mostly Cloudy 58 14.4 33 0.6 39 39 S 3 6 30.06 1018 10 16 N/A
7:52 pm 19:52 Cloudy 56 13.3 36 2.2 47 47 S 3 6 30.04 1017 10 16 N/A
8:52 pm 20:52 Cloudy 56 13.3 37 2.8 49 49 ESE 5 7 30.03 1017 10 16 N/A
9:52 pm 21:52 Cloudy 56 13.3 35 1.7 46 46 E 6 9 30.03 1017 10 16 N/A
10:52 pm 22:52 Cloudy 55 12.8 33 0.6 44 44 ESE 8 13 30.02 1017 10 16 N/A
11:52 pm 23:52 Cloudy 54 12.2 33 0.6 45 45 ESE 9 15 30.00 1016 10 16 N/A

Powered by AerisWeather